Flag Weather past 2 weeks in Mostar, Bosnia-Herzegovina

Now
50 °F

Mostly cloudy.


Feels Like: 49 °F
Forecast: 50 / 62 °F
Wind: 3 mph from North

Location: Mostar

Current Time: Nov 27, 2014 at 8:01:09 PM

Latest Report: Nov 27, 2014 at 7:00 PM


Visibility: 4 mi

Pressure: 29.98 "Hg

Humidity: 88%

Dew point: 46 °F

Location of MostarLocation

Historic Weather in Mostar — Graph

°F

Mostar temperature yesterday

Maximum temperature yesterday: 52 °F (at 11:30 AM)
Minimum temperature yesterday: 46 °F (at 11:00 PM)
Average temperature yesterday: 49 °F

Past Weeks' High & Low Weather Summary

 TemperatureHumidityPressure
High70 °F (Nov 14, 1:00 PM)100% (Nov 13, 9:30 AM)30.33 "Hg (Nov 13, 9:30 AM)
Low30 °F (Nov 23, 6:00 AM)34% (Nov 23, 2:00 PM)29.71 "Hg (Nov 12, 7:00 PM)
Average51 °F81%30.01 "Hg
* Reported Nov 12 7:00 PM — Nov 27 7:00 PM, Mostar, Weather by CustomWeather, © 2014

Note: Actual official high and low records may vary slightly from our data, if they occured in-between our weather recording intervals... More about our weather records

Advertising

Mostar weather history for previous 24 hours

 ConditionsComfort  
Time TempWeatherWind HumidityBarometerVisibility
7:00 PM
Nov 27
50 °FMostly cloudy.3 mph88%29.98 "Hg4 mi
6:00 PM50 °FDrizzle. Overcast.2 mph88%29.98 "Hg4 mi
5:00 PM50 °FDrizzle. Mostly cloudy.2 mph88%29.98 "Hg6 mi
4:00 PM50 °FFog.3 mph88%29.98 "Hg2 mi
3:00 PM52 °FFog.3 mph82%29.98 "Hg3 mi
2:00 PM52 °FFog.6 mph82%29.98 "Hg2 mi
1:00 PM52 °FFog.2 mph82%29.98 "Hg3 mi
12:00 PM52 °FFog.2 mph82%30.01 "Hg3 mi
11:00 AM50 °FFog.3 mph82%30.01 "Hg2 mi
10:00 AM48 °FFog.1 mph94%30.01 "Hg2 mi
9:30 AM48 °FFog.3 mph94%30.01 "Hg2 mi
9:00 AM48 °FFog.3 mph94%30.01 "Hg2 mi
8:30 AM48 °FFog.3 mph94%30.01 "Hg2 mi
8:00 AM46 °FFog.2 mph93%30.01 "Hg2 mi
7:30 AM46 °FFog.1 mph100%30.01 "Hg2 mi
7:00 AM46 °FSprinkles. Fog.1 mph100%30.01 "Hg2 mi
6:30 AM46 °FSprinkles. Fog.3 mph100%30.01 "Hg1 mi
6:00 AM46 °FFog.5 mph100%30.01 "Hg2 mi
5:00 AM46 °FLight rain. Fog.2 mph100%30.01 "Hg2 mi
4:00 AM46 °FDrizzle. Fog.2 mph93%30.01 "Hg1 mi
3:00 AM46 °FDrizzle. Fog.3 mph93%30.04 "Hg2 mi
2:00 AM46 °FSprinkles. Fog.1 mph93%30.04 "Hg2 mi
1:00 AM46 °FFog.3 mph100%30.04 "Hg2 mi
12:00 AM46 °FLight rain. Fog.2 mph100%30.04 "Hg2 mi
11:00 PM
Nov 26
46 °FLight rain. Fog.3 mph100%30.07 "Hg2 mi
10:00 PM48 °FLight rain. Fog.2 mph94%30.04 "Hg2 mi
9:00 PM48 °FRain showers. Fog.2 mph94%30.04 "Hg2 mi
8:00 PM48 °FLight rain. Fog.5 mph94%30.04 "Hg2 mi
Weather by CustomWeather, © 2014

See weather overviewHow to use our weather pages